Location: Shepherdstown, WV
(39.4326°N, 77.8042°W)
Time: 02:06:25
(UTC-04:00)

Courier 1B - Visible Passes

Search period start: 31 July 2021 00:00
Search period end: 10 August 2021 00:00
Orbit: 962 x 1209 km, 28.3° (Epoch: 30 July)

Date Brightness Start Highest point End Pass type
(mag) Time Alt. Az. Time Alt. Az. Time Alt. Az.
31 Jul 8.7 20:55:44 10° SW 21:02:30 33° S 21:09:04 10° ESE visible
31 Jul 8.5 22:49:19 10° WSW 22:56:05 34° S 22:56:10 34° S visible
01 Aug 8.5 21:55:24 10° WSW 22:02:20 36° S 22:05:34 25° SE visible
01 Aug 9.4 23:49:42 10° WSW 23:52:26 19° SW 23:52:26 19° SW visible
02 Aug 8.6 21:01:33 10° WSW 21:08:33 36° S 21:14:55 12° ESE visible
02 Aug 8.7 22:55:34 10° WSW 23:01:48 30° SSW 23:01:48 30° SSW visible
03 Aug 8.7 22:01:33 10° WSW 22:08:22 34° S 22:11:09 26° SSE visible
03 Aug 9.7 23:56:31 10° WSW 23:58:01 14° WSW 23:58:01 14° WSW visible
04 Aug 8.7 21:07:37 10° WSW 21:14:35 36° S 21:20:28 14° SE visible
04 Aug 9.1 23:02:06 10° WSW 23:07:21 24° SSW 23:07:21 24° SSW visible
05 Aug 8.9 22:07:55 10° WSW 22:14:22 28° SSW 22:16:40 24° SSE visible
06 Aug 8.9 21:13:51 10° WSW 21:20:36 32° SSW 21:26:00 15° SE visible
06 Aug 9.5 23:09:12 10° WSW 23:12:52 17° SW 23:12:52 17° SW visible
07 Aug 9.2 22:14:39 10° WSW 22:20:17 22° SSW 22:22:13 20° S visible
08 Aug 9.2 21:20:23 10° WSW 21:26:34 26° SSW 21:31:35 14° SSE visible
08 Aug 10.0 23:18:20 10° SW 23:18:27 10° SW 23:18:27 10° SW visible
09 Aug 9.6 22:22:11 10° WSW 22:26:07 15° SSW 22:27:51 14° SSW visible
